| time (UTC) | temp F | wind direction | speed MPH | gust MPH | rain 1hr in | rain 24hr in | rain mn in | humidity % | barometer mb |
| 20260506093047 | 50 | 67 | 3.0 | 12.0 | 0.08 | 0.67 | 0.56 | 96 | 1010.8 |
| 20260506091544 | 50 | 240 | 2.0 | 8.0 | 0.09 | 0.67 | 0.56 | 96 | 1011.5 |
| 20260506090047 | 50 | 217 | 3.0 | 11.0 | 0.09 | 0.67 | 0.56 | 95 | 1011.0 |
| 20260506084550 | 51 | 42 | 4.0 | 12.0 | 0.08 | 0.66 | 0.55 | 95 | 1010.4 |
| 20260506083047 | 51 | 360 | 3.0 | 16.0 | 0.02 | 0.58 | 0.48 | 95 | 1013.1 |
| 20260506081547 | 52 | 220 | 2.0 | 13.0 | 0.01 | 0.58 | 0.47 | 95 | 1010.9 |
| 20260506073048 | 53 | 12 | 3.0 | 13.0 | 0.42 | 0.57 | 0.46 | 95 | 1009.7 |
| 20260506071600 | 54 | 226 | 2.0 | 11.0 | 0.46 | 0.57 | 0.46 | 95 | 1009.1 |
| 20260506061547 | 61 | 17 | 4.0 | 12.0 | 0.00 | 0.11 | 0.00 | 92 | 1008.5 |
| 20260506044548 | 67 | 0 | 0.0 | 0.0 | 0.00 | 0.11 | 0.11 | 97 | 1007.2 |
| 20260506043047 | 67 | 0 | 0.0 | 0.0 | 0.00 | 0.11 | 0.11 | 97 | 1007.4 |
| 20260506041556 | 67 | 0 | 0.0 | 0.0 | 0.00 | 0.11 | 0.11 | 97 | 1007.6 |
| 20260506040049 | 67 | 0 | 0.0 | 0.0 | 0.00 | 0.11 | 0.11 | 97 | 1007.6 |
| 20260506034547 | 67 | 0 | 0.0 | 0.0 | 0.00 | 0.11 | 0.11 | 97 | 1007.0 |
| 20260506033043 | 67 | 0 | 0.0 | 0.0 | 0.00 | 0.11 | 0.11 | 97 | 1006.8 |
| 20260506031547 | 68 | 0 | 0.0 | 0.0 | 0.00 | 0.11 | 0.11 | 96 | 1007.3 |
| 20260506030046 | 68 | 0 | 0.0 | 0.0 | 0.00 | 0.11 | 0.11 | 97 | 1007.0 |
| 20260506024549 | 68 | 0 | 0.0 | 1.0 | 0.00 | 0.11 | 0.11 | 97 | 1007.7 |
| 20260506023044 | 68 | 0 | 0.0 | 1.0 | 0.00 | 0.11 | 0.11 | 96 | 1006.9 |
| 20260506021545 | 68 | 0 | 0.0 | 0.0 | 0.00 | 0.11 | 0.11 | 96 | 1007.0 |
| 20260506020043 | 68 | 0 | 0.0 | 0.0 | 0.00 | 0.11 | 0.11 | 96 | 1007.1 |
| 20260506014552 | 69 | 0 | 0.0 | 0.0 | 0.00 | 0.11 | 0.11 | 96 | 1007.1 |
| 20260506013046 | 69 | 0 | 0.0 | 1.0 | 0.00 | 0.11 | 0.11 | 96 | 1006.8 |
| 20260506011547 | 69 | 0 | 0.0 | 0.0 | 0.00 | 0.11 | 0.11 | 96 | 1006.8 |
| 20260506010048 | 70 | 0 | 0.0 | 0.0 | 0.00 | 0.11 | 0.11 | 96 | 1006.6 |
| 20260506004545 | 70 | 0 | 0.0 | 0.0 | 0.00 | 0.11 | 0.11 | 96 | 1006.4 |
| 20260506003046 | 70 | 0 | 0.0 | 0.0 | 0.00 | 0.11 | 0.11 | 96 | 1006.2 |
| 20260506001608 | 70 | 0 | 0.0 | 1.0 | 0.00 | 0.11 | 0.11 | 96 | 1006.3 |
| 20260506000051 | 71 | 0 | 0.0 | 2.0 | 0.00 | 0.11 | 0.11 | 96 | 1006.4 |
| 20260505234549 | 71 | 0 | 0.0 | 2.0 | 0.00 | 0.11 | 0.11 | 96 | 1006.1 |
| 20260505233047 | 71 | 0 | 0.0 | 2.0 | 0.00 | 0.11 | 0.11 | 95 | 1005.9 |
| 20260505231552 | 71 | 128 | 0.0 | 2.0 | 0.00 | 0.11 | 0.11 | 95 | 1006.2 |
| 20260505230045 | 71 | 123 | 0.0 | 4.0 | 0.00 | 0.11 | 0.11 | 96 | 1006.1 |
| 20260505224547 | 70 | 0 | 0.0 | 3.0 | 0.00 | 0.11 | 0.11 | 96 | 1006.1 |
| 20260505223056 | 70 | 123 | 0.0 | 3.0 | 0.00 | 0.11 | 0.11 | 96 | 1006.4 |
| 20260505221552 | 70 | 0 | 0.0 | 2.0 | 0.00 | 0.11 | 0.11 | 97 | 1006.5 |
| 20260505220047 | 69 | 0 | 0.0 | 2.0 | 0.00 | 0.11 | 0.11 | 97 | 1006.2 |
| 20260505214558 | 69 | 0 | 0.0 | 2.0 | 0.00 | 0.11 | 0.11 | 97 | 1006.6 |
| 20260505213055 | 69 | 159 | 0.0 | 3.0 | 0.00 | 0.11 | 0.11 | 97 | 1006.8 |
| 20260505211544 | 68 | 0 | 0.0 | 4.0 | 0.00 | 0.11 | 0.11 | 97 | 1006.4 |
| 20260505210051 | 68 | 175 | 0.0 | 5.0 | 0.00 | 0.11 | 0.11 | 97 | 1007.1 |
| 20260505204545 | 67 | 0 | 0.0 | 3.0 | 0.00 | 0.11 | 0.11 | 97 | 1007.1 |
| 20260505203047 | 67 | 171 | 0.0 | 4.0 | 0.00 | 0.11 | 0.11 | 97 | 1007.3 |
| 20260505201552 | 67 | 0 | 0.0 | 5.0 | 0.00 | 0.11 | 0.11 | 97 | 1007.1 |
| 20260505200049 | 67 | 0 | 0.0 | 6.0 | 0.00 | 0.11 | 0.11 | 97 | 1006.8 |
| 20260505194547 | 67 | 0 | 0.0 | 8.0 | 0.00 | 0.11 | 0.11 | 97 | 1007.1 |
| 20260505193051 | 66 | 0 | 1.0 | 8.0 | 0.00 | 0.11 | 0.11 | 97 | 1007.2 |
| 20260505191556 | 66 | 139 | 1.0 | 6.0 | 0.00 | 0.11 | 0.11 | 97 | 1007.5 |
| 20260505190111 | 66 | 169 | 1.0 | 10.0 | 0.00 | 0.11 | 0.11 | 97 | 1007.4 |
| 20260505184600 | 66 | 0 | 0.0 | 7.0 | 0.00 | 0.11 | 0.11 | 97 | 1007.2 |
| 20260505183051 | 65 | 0 | 1.0 | 4.0 | 0.00 | 0.11 | 0.11 | 97 | 1007.3 |
| 20260505181546 | 65 | 117 | 1.0 | 8.0 | 0.00 | 0.11 | 0.11 | 96 | 1007.5 |
| 20260505180056 | 65 | 0 | 1.0 | 7.0 | 0.01 | 0.11 | 0.11 | 96 | 1007.6 |
| 20260505174546 | 65 | 128 | 1.0 | 6.0 | 0.01 | 0.11 | 0.11 | 96 | 1007.8 |
| 20260505173045 | 65 | 0 | 1.0 | 7.0 | 0.01 | 0.11 | 0.11 | 96 | 1008.0 |
| 20260505171548 | 65 | 146 | 0.0 | 8.0 | 0.00 | 0.10 | 0.10 | 96 | 1008.1 |
| 20260505170054 | 65 | 0 | 1.0 | 7.0 | 0.01 | 0.10 | 0.10 | 96 | 1008.2 |
| 20260505164546 | 65 | 172 | 0.0 | 5.0 | 0.01 | 0.10 | 0.10 | 96 | 1008.3 |
| 20260505163041 | 65 | 179 | 0.0 | 5.0 | 0.02 | 0.10 | 0.10 | 96 | 1008.1 |
| 20260505161547 | 65 | 171 | 0.0 | 4.0 | 0.03 | 0.10 | 0.10 | 96 | 1008.2 |
| 20260505153053 | 64 | 0 | 0.0 | 3.0 | 0.02 | 0.08 | 0.08 | 96 | 1008.4 |
| 20260505151543 | 64 | 0 | 0.0 | 3.0 | 0.02 | 0.07 | 0.07 | 96 | 1008.4 |
| 20260505150107 | 64 | 0 | 0.0 | 4.0 | 0.03 | 0.07 | 0.07 | 96 | 1008.3 |
| 20260505124604 | 64 | 0 | 0.0 | 3.0 | 0.01 | 0.01 | 0.01 | 93 | 1008.3 |
| 20260505123106 | 64 | 0 | 0.0 | 2.0 | 0.00 | 0.00 | 0.00 | 92 | 1008.2 |
| 20260505121548 | 64 | 170 | 0.0 | 4.0 | 0.00 | 0.00 | 0.00 | 91 | 1008.1 |
| 20260505120053 | 65 | 0 | 0.0 | 5.0 | 0.00 | 0.00 | 0.00 | 89 | 1007.9 |
| 20260505114559 | 65 | 186 | 1.0 | 6.0 | 0.00 | 0.00 | 0.00 | 88 | 1007.7 |
| 20260505113050 | 66 | 159 | 1.0 | 9.0 | 0.00 | 0.00 | 0.00 | 86 | 1007.4 |
| 20260505111546 | 67 | 160 | 2.0 | 7.0 | 0.00 | 0.00 | 0.00 | 84 | 1006.9 |
| 20260505101552 | 66 | 151 | 1.0 | 9.0 | 0.00 | 0.00 | 0.00 | 82 | 1007.3 |
| 20260505100046 | 66 | 0 | 1.0 | 8.0 | 0.00 | 0.00 | 0.00 | 81 | 1007.0 |
| 20260505094549 | 66 | 192 | 3.0 | 8.0 | 0.00 | 0.00 | 0.00 | 81 | 1006.7 |